STARLINK-30042 (55702 NORAD) Tracking and Keplerian Element Data

This shows tracking and keplerian element data for the satellite.

Feedback or suggestion? Click here.




ElementValue
Catalog55702
NameSTARLINK-30042
Epoch Orbit130
Epoch Day62.91667824
Epoch Year2023
RAAN259.6171
Inclination43.0102
Eccentricity0.0001577
Argument of Perigee275.076
Mean Anonmoly184.4003
Mean Motion15.65298596
Decay Rate-0.00793386
L11 55702U 23026H 23062.91667824 -.00793386 00000+0 -85421-2 0 9997
L22 55702 43.0102 259.6171 0001577 275.0760 184.4003 15.65298596 1309



Live tracking and technical data element details for STARLINK-30042 (NORAD 55702). STARLINK-30042 can be tracked NOW for your location showing map with azimuth and elevation plus other details from your city location.







IsCatalogInMostPopularTable: catalog: 55702, numindb: 1
Update: records affected: 1



GetName: 55702 STARLINK-30042

Hit Count: updated at: Wed, 22 Mar 2023 16:30:34 GMT